Weather Service Report


207 
ASUS44 KLIX 271612
RWRLA 
LOUISIANA WEATHER ROUNDUP
NATIONAL WEATHER SERVICE NEW ORLEANS LA
1100 AM CDT FRI MAY 27 2016

NOTE: "FAIR" INDICATES FEW OR NO CLOUDS BELOW 12,000 FEET WITH NO
      SIGNIFICANT WEATHER AND/OR OBSTRUCTIONS TO VISIBILITY.
      SKY/WX - SKY CONDITION AND SIGNIFICANT WEATHER.
      TMP - AIR TEMPERATURE.    DP   - DEWPOINT TEMPERATURE.
      RH  - RELATIVE HUMIDITY.  PRES - PRESSURE.
      HX  - HEAT INDEX.         WCI  - WIND CHILL INDEX.

*  THESE STATIONS ARE NOT NWS OR FAA STATIONS AND ARE NOT UNDER
   NWS QUALITY CONTROL.

LAZ040-048-061>063-065-066-069-271700-
SOUTHEAST LOUISIANA
  
CITY           SKY/WX    TMP DP  RH WIND       PRES   REMARKS
N.O. AUDUBON     N/A     82  70  68 MISG        N/A                   
N.O. INTL ARPT CLOUDY    83  70  64 SE10      29.99S                  
N.O. LAKEFRONT CLOUDY    82  66  58 SE14      30.01R                  
N.O. DOWNTOWN* FAIR      82  68  62 VRB7      30.01R                  
RESERVE*       FAIR      84  69  61 SE12      29.99S                  
SLIDELL        CLOUDY    82  68  62 SE6       30.01R                  
BATON ROUGE    CLOUDY    81  69  67 S10       29.98S                  
BOOTHVILLE     CLOUDY    80  68  66 SE9       30.01R                  
BELLE CHASSE   CLOUDY    81  69  67 SE10      30.00R                  
BOGALUSA*      FAIR      82  69  63 S7        30.03R                  
GALLIANO*      CLOUDY    82  70  67 SE7       29.99S                  
NEW ROADS*     FAIR      78  73  83 SE9       29.95F                  
GONZALES*      CLOUDY    82  70  68 S10       29.97S                  
HAMMOND*       CLOUDY    82  64  54 SE12G17   29.99F                  
HOUMA*         MOSUNNY   79  72  78 SE12G17   29.95S                  
PORT FOURCHON* PTSUNNY   81  72  74 SE15G21   29.98S                  

$$

LAZ041-044-053-054-271700-
SOUTHWEST LOUISIANA
  
CITY           SKY/WX    TMP DP  RH WIND       PRES   REMARKS
LAKE CHARLES   CLOUDY    81  71  71 SE22G29   29.87F                  
LAFAYETTE      CLOUDY    79  75  87 VRB3      29.94F                  
PATTERSON      MOSUNNY   80  72  76 SE7       29.97S                  
SALT POINT       N/A     79  72  79 VRB7      29.94F                  
NEW IBERIA     CLOUDY    81  71  71 SE20      29.95F                  
CHENAULT AIRPK PTSUNNY   81  73  78 SE21      29.87F                  

$$

LAZ027-028-271700-
CENTRAL LOUISIANA
  
CITY           SKY/WX    TMP DP  RH WIND       PRES   REMARKS
FORT POLK      PTSUNNY   72  69  88 SE10      29.88F                  
ALEXANDRIA INT CLOUDY    74  72  93 SE14      29.89S                  
ALEXANDRIA     LGT RAIN  77  72  84 S9        29.91F                  

$$

LAZ001-002-271700-
NORTHWEST LOUISIANA
  
CITY           SKY/WX    TMP DP  RH WIND       PRES   REMARKS
SHREVEPORT     CLOUDY    74  69  85 NW9       29.89S                  
BARKSDALE AFB  CLOUDY    73  68  83 W9        29.91R                  
DTN SHREVEPORT CLOUDY    73  67  81 W13       29.91R                  

$$

LAZ014-016-271700-
NORTHEAST LOUISIANA
  
CITY           SKY/WX    TMP DP  RH WIND       PRES   REMARKS
MONROE         LGT RAIN  75  73  93 SE5       29.89F                  
TALLULAH       CLOUDY    82  70  66 S14G22    29.95F                  

$$

  


208 
ASUS44 KLIX 271612
RWRLIX
NEW ORLEANS REGIONAL WEATHER ROUNDUP
NATIONAL WEATHER SERVICE NEW ORLEANS LA
1100 AM CDT FRI MAY 27 2016

NOTE: "FAIR" INDICATES FEW OR NO CLOUDS BELOW 12,000 FEET WITH NO
      SIGNIFICANT WEATHER AND/OR OBSTRUCTIONS TO VISIBILITY.
      SKY/WX - SKY CONDITION AND SIGNIFICANT WEATHER.
      TMP - AIR TEMPERATURE.     DP    - DEWPOINT TEMPERATURE.
      RH  - RELATIVE HUMIDITY.   PRES  - PRESSURE.
      HI  - HEAT INDEX.          WCI   - WIND CHILL INDEX.

*  THESE STATIONS ARE NOT NWS OR FAA STATIONS AND ARE NOT UNDER
   NWS QUALITY CONTROL. 

LAZ038-040-048-061>063-065>067-069-271700-
SOUTHEAST LOUISIANA
  
CITY           SKY/WX    TMP DP  RH WIND       PRES   REMARKS
N.O. AUDUBON     N/A     82  70  68 MISG        N/A                   
N.O. INTL ARPT CLOUDY    83  70  64 SE10      29.99S                  
N.O. LAKEFRONT CLOUDY    82  66  58 SE14      30.01R                  
N.O. DOWNTOWN*   N/A     82  68  62 VRB7      30.01R                  
RESERVE*         N/A     84  69  61 SE12      29.99S                  
SLIDELL        CLOUDY    82  68  62 SE6       30.01R                  
BATON ROUGE    CLOUDY    81  69  67 S10       29.98S                  
BOOTHVILLE     CLOUDY    80  68  66 SE9       30.01R                  
BELLE CHASSE   CLOUDY    81  69  67 SE10      30.00R                  
BOGALUSA*        N/A     82  69  63 S7        30.03R                  
GALLIANO*      CLOUDY    82  70  67 SE7       29.99S                  
NEW ROADS*       N/A     78  73  83 SE9       29.95F                  
GONZALES*      CLOUDY    82  70  68 S10       29.97S                  
HAMMOND*       CLOUDY    82  64  54 SE12G17   29.99F                  
HOUMA*         MOSUNNY   79  72  78 SE12G17   29.95S                  
PORT FOURCHON* PTSUNNY   81  72  74 SE15G21   29.98S                  

$$

MSZ070-080>082-271700-
SOUTHERN MISSISSIPPI
  
CITY           SKY/WX    TMP DP  RH WIND       PRES   REMARKS
MCCOMB         PTSUNNY   80  70  71 S10       30.00S                  
GULFPORT       CLOUDY    82  63  52 SE15      30.01R                  
BILOXI         CLOUDY    82  66  58 SE10G17   30.02R                  
PASCAGOULA     CLOUDY    82  69  64 SE15      30.03R                  
STENNIS ARPT*  SUNNY     82  57  42 S12G18    30.01R                  

$$

COASTAL OBSERVATIONS
LAKE AND NEARSHORE STATIONS
  
STATION/POSITION TIME  TEMP    WIND        PRES    WAVE
                       AIR SEA DIR/SP/G            HT/PER
                 (UTC) (F)     (DEG/KT/KT) (MB)    (FT/S)
PASCAGOULA       1500   83     130/ 16/ 20 1015.9
WAVELAND YACHT   1500   80 79  150/ 16/ 18 1015.9
GRAND ISLE       1500   80 81  150/  9/ 14 1015.2
SOUTHWEST PASS   1500          150/  7/ 16   N/A
NEW CANAL        1500   81 80  150/  5/ 10 1014.9
SHELL BEACH      1500   80 81  140/ 14/ 16 1015.8

OFFSHORE STATIONS
  
STATION/POSITION TIME  TEMP    WIND        PRES    WAVE
                       AIR SEA DIR/SP/G            HT/PER
                 (UTC) (F)     (DEG/KT/KT) (MB)    (FT/S)
64 S DAUPHIN ISL 1500   79 79  120/ 17/ 21 1015.1

$$

  

Return to Home page


Western Regional Climate Center, wrcc@dri.edu